Epoch,demod_status_bits,ebno,lock_status,signal_level,viterbi_ber
1664310615,,13.6,0x00c000,-37.9,
1664310616,C;S;V;F,13.9,0x00c000,-37.5,0.00e-0
1664310617,C;S;V;F,14.0,0x00c000,-37.5,0.00e-0
1664310618,C;S;V;F,,0x00c000,-37.4,0.00e-0
1664310619,C;S;V;F,13.9,0x00c000,-37.7,0.00e-0
1664310620,C;S;V;F,13.7,0x00c000,,0.00e-0
1664310621,C;S;V;F,14.3,0x00c000,-37.3,0.00e-0
1664310622,C;S;V;F,14.2,0x00c000,-37.4,0.00e-0
1664310623,C;S;V;F,14.5,0x00c000,-37.1,0.00e-0
1664310624,C;S;V;F,14.1,0x00c000,-37.3,0.00e-0
1664310625,C;S;V;F,14.1,0x00c000,-37.4,0.00e-0
1664310626,C;S;V;F,14.3,0x00c000,-37.2,0.00e-0
1664310627,C;S;V;F,14.2,0x00c000,-37.3,0.00e-0
1664310628,C;S;V;F,13.9,0x00c000,-37.4,
1664310629,,13.8,0x00c000,-37.6,0.00e-0
1664310630,C;S;V;F,14.1,0x00c000,-37.4,0.00e-0
1664310631,C;S;V;F,,0x00c000,-37.2,0.00e-0
1664310632,C;S;V;F,14.1,0x00c000,-37.2,0.00e-0
1664310633,C;S;V;F,14.3,0x00c000,,0.00e-0
1664310634,C;S;V;F,14.3,0x00c000,-37.2,0.00e-0
1664310635,C;S;V;F,14.3,0x00c000,-37.2,0.00e-0
1664310636,C;S;V;F,14.2,0x00c000,-37.4,0.00e-0
1664310637,C;S;V;F,14.4,0x00c000,-37.0,0.00e-0
1664310639,C;S;V;F,14.7,0x00c000,-37.2,0.00e-0
1664310640,C;S;V;F,14.7,0x00c000,-37.0,0.00e-0
1664310641,C;S;V;F,14.4,0x00c000,-37.2,0.00e-0
1664310642,C;S;V;F,14.5,0x00c000,-37.2,0.00e-0
1664310643,C;S;V;F,14.7,0x00c000,-37.1,
1664310644,,14.6,0x00c000,-37.0,0.00e-0
1664310645,C;S;V;F,14.6,0x00c000,-37.1,0.00e-0
1664310646,C;S;V;F,14.3,0x00c000,-37.2,0.00e-0
1664310647,C;S;V;F,,0x00c000,-37.2,0.00e-0
1664310648,C;S;V;F,14.4,0x00c000,-37.3,0.00e-0
1664310649,C;S;V;F,14.2,0x00c000,,0.00e-0
1664310650,C;S;V;F,14.0,0x00c000,-37.5,0.00e-0
1664310651,C;S;V;F,14.1,0x00c000,-37.4,0.00e-0
1664310652,C;S;V;F,14.2,0x00c000,-37.5,0.00e-0
1664310653,C;S;V;F,14.0,0x00c000,-37.8,0.00e-0
1664310654,C;S;V;F,13.9,0x00c000,-37.7,0.00e-0
1664310655,C;S;V;F,13.7,0x00c000,-38.0,0.00e-0
1664310656,C;S;V;F,13.6,0x00c000,-38.0,
1664310657,,14.3,0x00c000,-37.2,0.00e-0
1664310658,C;S;V;F,14.4,0x00c000,-37.5,0.00e-0
1664310659,C;S;V;F,14.2,0x00c000,-37.3,0.00e-0
1664310660,C;S;V;F,13.9,0x00c000,-37.7,0.00e-0
1664310661,C;S;V;F,,0x00c000,,0.00e-0
1664310664,,14.0,0x00c000,-37.6,
1664310665,C;S;V;F,14.2,0x00c000,-37.5,0.00e-0
1664310666,C;S;V;F,14.2,0x00c000,-37.5,0.00e-0
1664310667,C;S;V;F,14.0,0x00c000,-37.9,0.00e-0
1664310668,C;S;V;F,,0x00c000,-37.8,0.00e-0
1664310669,C;S;V;F,13.8,0x00c000,,0.00e-0
1664310670,C;S;V;F,14.1,0x00c000,-37.8,0.00e-0
1664310671,C;S;V;F,14.2,0x00c000,-37.5,0.00e-0
1664310672,C;S;V;F,14.1,0x00c000,-37.6,0.00e-0
1664310673,C;S;V;F,14.1,0x00c000,-37.7,0.00e-0
1664310674,C;S;V;F,14.3,0x00c000,-37.5,0.00e-0
1664310675,C;S;V;F,14.4,0x00c000,-37.4,0.00e-0
1664310676,C;S;V;F,14.3,0x00c000,-37.3,0.00e-0
1664310677,,14.3,0x00c000,-37.5,
1664310678,C;S;V;F,14.1,0x00c000,-37.5,0.00e-0
1664310679,C;S;V;F,14.3,0x00c000,-37.3,0.00e-0
1664310680,C;S;V;F,14.2,0x00c000,-37.5,0.00e-0
1664310681,C;S;V;F,,0x00c000,-37.3,0.00e-0
1664310682,C;S;V;F,14.1,0x00c000,,0.00e-0
1664310683,C;S;V;F,14.4,0x00c000,-37.3,0.00e-0
1664310684,C;S;V;F,14.5,0x00c000,-37.5,0.00e-0
1664310685,C;S;V;F,14.2,0x00c000,-37.5,0.00e-0
1664310686,C;S;V;F,14.4,0x00c000,-37.3,0.00e-0
1664310687,C;S;V;F,14.5,0x00c000,-37.3,0.00e-0
1664310688,C;S;V;F,14.6,0x00c000,-37.2,0.00e-0
1664310689,C;S;V;F,14.6,0x00c000,-37.1,0.00e-0
1664310690,C;S;V;F,14.6,0x00c000,-37.3,0.00e-0
1664310691,C;S;V;F,14.4,0x00c000,-37.7,
1664310692,,14.1,0x00c000,-37.5,0.00e-0
1664310693,C;S;V;F,14.3,0x00c000,-38.0,0.00e-0
1664310694,C;S;V;F,13.7,0x00c000,-37.7,0.00e-0
1664310695,C;S;V;F,,0x00c000,-37.7,0.00e-0
1664310696,C;S;V;F,14.3,0x00c000,,0.00e-0
1664310697,C;S;V;F,14.3,0x00c000,-37.5,0.00e-0
1664310698,C;S;V;F,14.4,0x00c000,-37.5,0.00e-0
1664310699,C;S;V;F,14.1,0x00c000,-38.0,0.00e-0
1664310701,C;S;V;F,14.1,0x00c000,-37.8,0.00e-0
1664310702,C;S;V;F,14.2,0x00c000,-37.6,0.00e-0
1664310703,C;S;V;F,14.3,0x00c000,-37.3,0.00e-0
1664310704,C;S;V;F,14.2,0x00c000,-37.4,0.00e-0
1664310705,C;S;V;F,14.5,0x00c000,-37.2,0.00e-0
1664310706,C;S;V;F,14.3,0x00c000,-37.3,0.00e-0
1664310707,C;S;V;F,14.5,0x00c000,-37.2,
1664310708,,14.6,0x00c000,-37.2,0.00e-0
1664310709,C;S;V;F,14.2,0x00c000,-37.4,0.00e-0
1664310710,C;S;V;F,14.2,0x00c000,-37.5,0.00e-0
1664310711,C;S;V;F,14.4,0x00c000,-37.5,0.00e-0
1664310712,C;S;V;F,14.4,0x00c000,-37.3,0.00e-0
1664310713,C;S;V;F,,0x00c000,-37.3,0.00e-0
1664310714,C;S;V;F,14.4,0x00c000,,0.00e-0
1664310715,C;S;V;F,14.3,0x00c000,-37.9,0.00e-0
1664310716,C;S;V;F,13.7,0x00c000,-38.2,0.00e-0
1664310717,C;S;V;F,13.7,0x00c000,-37.9,0.00e-0
1664310718,C;S;V;F,14.0,0x00c000,-38.0,0.00e-0
1664310719,C;S;V;F,14.0,0x00c000,-37.8,0.00e-0
1664310720,C;S;V;F,14.1,0x00c000,-37.9,0.00e-0
1664310721,C;S;V;F,14.1,0x00c000,-38.0,0.00e-0
1664310722,C;S;V;F,14.3,0x00c000,-37.9,0.00e-0
1664310723,C;S;V;F,14.0,0x00c000,-37.8,0.00e-0
1664310724,C;S;V;F,14.1,0x00c000,-37.9,
1664310725,,14.3,0x00c000,-37.6,0.00e-0
1664310726,C;S;V;F,14.1,0x00c000,-37.8,0.00e-0
1664310727,C;S;V;F,14.3,0x00c000,-37.6,0.00e-0
1664310728,C;S;V;F,13.9,0x00c000,-37.8,0.00e-0
1664310729,C;S;V;F,,0x00c000,-37.8,0.00e-0
1664310730,C;S;V;F,14.1,0x00c000,,0.00e-0
1664310731,C;S;V;F,14.1,0x00c000,-37.9,0.00e-0
1664310732,C;S;V;F,14.3,0x00c000,-37.6,0.00e-0
1664310733,C;S;V;F,14.4,0x00c000,-37.6,0.00e-0
1664310734,C;S;V;F,14.4,0x00c000,-37.6,0.00e-0
1664310735,C;S;V;F,14.4,0x00c000,-37.5,0.00e-0
1664310736,C;S;V;F,14.2,0x00c000,-37.6,0.00e-0
1664310737,C;S;V;F,13.9,0x00c000,-37.9,0.00e-0
1664310738,C;S;V;F,14.0,0x00c000,-37.8,0.00e-0
1664310739,C;S;V;F,14.3,0x00c000,-37.9,
1664310740,,14.1,0x00c000,-37.9,0.00e-0
1664310741,C;S;V;F,14.1,0x00c000,-38.0,0.00e-0
1664310742,C;S;V;F,13.8,0x00c000,-38.0,0.00e-0
1664310743,C;S;V;F,,0x00c000,-38.0,0.00e-0
1664310744,C;S;V;F,13.9,0x00c000,-38.0,0.00e-0
1664310745,C;S;V;F,13.7,0x00c000,-37.7,0.00e-0
1664310746,C;S;V;F,14.1,0x00c000,,0.00e-0
1664310747,C;S;V;F,14.3,0x00c000,-37.6,0.00e-0
1664310748,C;S;V;F,14.2,0x00c000,-37.5,0.00e-0
1664310749,C;S;V;F,14.7,0x00c000,-37.4,0.00e-0
1664310750,C;S;V;F,14.6,0x00c000,-37.5,0.00e-0
1664310751,C;S;V;F,14.5,0x00c000,-37.3,0.00e-0
1664310752,C;S;V;F,14.4,0x00c000,-37.5,0.00e-0
1664310753,C;S;V;F,14.4,0x00c000,-37.3,0.00e-0
1664310754,C;S;V;F,14.4,0x00c000,-37.3,0.00e-0
1664310755,C;S;V;F,14.5,0x00c000,-37.5,0.00e-0
1664310756,C;S;V;F,14.5,0x00c000,-37.5,
1664310757,,14.4,0x00c000,-37.4,0.00e-0
1664310758,C;S;V;F,14.5,0x00c000,-37.6,0.00e-0
1664310759,C;S;V;F,14.6,0x00c000,-37.4,0.00e-0
1664310760,C;S;V;F,14.5,0x00c000,-37.4,0.00e-0
1664310761,C;S;V;F,,0x00c000,-37.5,0.00e-0
1664310762,C;S;V;F,14.6,0x00c000,,0.00e-0
1664310764,,14.7,0x00c000,-37.2,
1664310765,C;S;V;F,,0x00c000,-37.2,0.00e-0
1664310766,C;S;V;F,14.8,0x00c000,,0.00e-0
1664310767,C;S;V;F,14.6,0x00c000,-37.3,0.00e-0
1664310768,C;S;V;F,15.0,0x00c000,-37.1,0.00e-0
1664310769,C;S;V;F,14.9,0x00c000,-37.1,0.00e-0
1664310770,C;S;V;F,14.8,0x00c000,-37.1,0.00e-0
1664310771,C;S;V;F,14.9,0x00c000,-37.1,0.00e-0
1664310772,C;S;V;F,15.0,0x00c000,-37.0,0.00e-0
1664310773,C;S;V;F,15.0,0x00c000,-36.9,0.00e-0
1664310774,C;S;V;F,15.1,0x00c000,-37.0,0.00e-0
1664310775,C;S;V;F,14.8,0x00c000,-37.1,0.00e-0
1664310776,C;S;V;F,14.9,0x00c000,-37.1,
1664310777,,14.9,0x00c000,-37.2,0.00e-0
1664310778,C;S;V;F,14.8,0x00c000,-37.3,0.00e-0
1664310779,C;S;V;F,14.8,0x00c000,-37.3,0.00e-0
1664310780,C;S;V;F,14.7,0x00c000,-37.5,0.00e-0
1664310781,C;S;V;F,,0x00c000,-37.2,0.00e-0
1664310782,C;S;V;F,14.8,0x00c000,,0.00e-0
1664310783,C;S;V;F,14.7,0x00c000,-37.3,0.00e-0
1664310784,C;S;V;F,14.7,0x00c000,-37.3,0.00e-0
1664310785,C;S;V;F,14.6,0x00c000,-37.4,0.00e-0
1664310786,C;S;V;F,14.5,0x00c000,-37.4,0.00e-0
1664310787,C;S;V;F,14.5,0x00c000,-37.4,0.00e-0
1664310788,C;S;V;F,14.6,0x00c000,-37.5,0.00e-0
1664310789,C;S;V;F,14.4,0x00c000,-37.6,0.00e-0
1664310790,C;S;V;F,14.5,0x00c000,-37.6,0.00e-0
1664310791,C;S;V;F,14.4,0x00c000,-37.6,0.00e-0
1664310792,C;S;V;F,14.3,0x00c000,-37.9,
1664310793,,13.9,0x00c000,-38.0,0.00e-0
1664310794,C;S;V;F,14.1,0x00c000,-38.0,0.00e-0
1664310795,C;S;V;F,14.1,0x00c000,-38.0,0.00e-0
1664310796,C;S;V;F,14.0,0x00c000,-38.0,0.00e-0
1664310797,C;S;V;F,,0x00c000,-38.0,0.00e-0
1664310798,C;S;V;F,13.9,0x00c000,,0.00e-0
1664310799,C;S;V;F,14.1,0x00c000,-38.3,0.00e-0
1664310800,C;S;V;F,13.9,0x00c000,-38.2,0.00e-0
1664310801,C;S;V;F,13.6,0x00c000,-38.0,0.00e-0
1664310802,C;S;V;F,13.4,0x00c000,-38.3,0.00e-0
1664310803,C;S;V;F,13.8,0x00c000,-38.3,0.00e-0
1664310804,C;S;V;F,13.6,0x00c000,-38.5,0.00e-0
1664310805,C;S;V;F,13.5,0x00c000,-38.4,0.00e-0
1664310806,C;S;V;F,13.4,0x00c000,-38.6,0.00e-0
1664310807,C;S;V;F,13.2,0x00c000,-38.9,0.00e-0
1664310808,C;S;V;F,13.0,0x00c000,-39.1,
1664310809,C;S;V;F,13.2,0x00c000,-39.0,0.00e-0
1664310810,,12.9,0x00c000,-38.9,0.00e-0
1664310811,C;S;V;F,13.2,0x00c000,-38.8,0.00e-0
1664310812,C;S;V;F,13.6,0x00c000,-38.6,1.51e-7
1664310813,C;S;V;F,,0x00c000,-38.3,1.51e-7
1664310814,C;S;V;F,13.5,0x00c000,,0.00e-0
1664310815,C;S;V;F,13.9,0x00c000,-38.2,0.00e-0
1664310816,C;S;V;F,13.9,0x00c000,-38.2,0.00e-0
1664310817,C;S;V;F,13.8,0x00c000,-38.2,0.00e-0
1664310818,C;S;V;F,13.6,0x00c000,-38.3,0.00e-0
1664310819,C;S;V;F,13.6,0x00c000,-38.4,0.00e-0
1664310820,C;S;V;F,13.6,0x00c000,-38.4,0.00e-0
1664310821,C;S;V;F,13.5,0x00c000,-38.4,0.00e-0
1664310822,C;S;V;F,13.5,0x00c000,-38.4,0.00e-0
1664310823,C;S;V;F,13.2,0x00c000,-38.7,0.00e-0
1664310824,C;S;V;F,13.7,0x00c000,-38.4,
1664310825,,,,,0.00e-0
1664310827,,14.2,0x00c000,-37.8,
1664310828,C;S;V;F,14.2,0x00c000,-37.9,0.00e-0
1664310829,C;S;V;F,14.1,0x00c000,-37.9,0.00e-0
1664310830,C;S;V;F,14.1,0x00c000,-37.9,0.00e-0
1664310831,C;S;V;F,,0x00c000,-37.9,0.00e-0
1664310832,C;S;V;F,14.0,0x00c000,,0.00e-0
1664310833,C;S;V;F,14.3,0x00c000,-37.9,0.00e-0
1664310834,C;S;V;F,14.3,0x00c000,-37.9,0.00e-0
1664310835,C;S;V;F,13.8,0x00c000,-38.0,0.00e-0
1664310836,C;S;V;F,13.9,0x00c000,-37.9,0.00e-0
1664310837,C;S;V;F,14.5,0x00c000,-37.8,0.00e-0
1664310838,C;S;V;F,14.4,0x00c000,-37.6,0.00e-0
1664310839,C;S;V;F,14.4,0x00c000,-37.8,0.00e-0
1664310840,C;S;V;F,14.1,0x00c000,-37.8,0.00e-0
1664310841,C;S;V;F,14.4,0x00c000,-37.8,
1664310842,,14.1,0x00c000,-37.8,0.00e-0
1664310843,C;S;V;F,14.4,0x00c000,-37.8,0.00e-0
1664310844,C;S;V;F,14.3,0x00c000,-37.7,0.00e-0
1664310845,C;S;V;F,14.4,0x00c000,-37.6,0.00e-0
1664310846,C;S;V;F,,0x00c000,-37.4,0.00e-0
1664310847,C;S;V;F,14.6,0x00c000,,0.00e-0
1664310848,C;S;V;F,14.8,0x00c000,-37.3,0.00e-0
1664310849,C;S;V;F,14.7,0x00c000,-37.1,0.00e-0
1664310850,C;S;V;F,14.8,0x00c000,-37.2,0.00e-0
1664310851,C;S;V;F,15.1,0x00c000,-36.6,0.00e-0
1664310852,C;S;V;F,15.1,0x00c000,-36.8,0.00e-0
1664310853,C;S;V;F,15.2,0x00c000,-36.7,0.00e-0
1664310854,C;S;V;F,15.0,0x00c000,-37.2,0.00e-0
1664310855,C;S;V;F,14.9,0x00c000,-36.9,0.00e-0
1664310856,C;S;V;F,14.8,0x00c000,-37.0,0.00e-0
1664310857,C;S;V;F,14.9,0x00c000,-37.0,0.00e-0
1664310858,C;S;V;F,15.1,0x00c000,-37.1,
1664310859,,15.1,0x00c000,-37.1,0.00e-0
1664310860,C;S;V;F,14.9,0x00c000,-36.8,0.00e-0
1664310861,C;S;V;F,,0x00c000,-36.7,0.00e-0
1664310862,C;S;V;F,15.2,0x00c000,-36.5,0.00e-0
1664310863,C;S;V;F,15.3,0x00c000,,0.00e-0
1664310864,C;S;V;F,15.5,0x00c000,-36.4,0.00e-0
1664310865,C;S;V;F,15.7,0x00c000,-36.1,0.00e-0
1664310866,C;S;V;F,15.7,0x00c000,-36.3,0.00e-0
1664310867,C;S;V;F,15.6,0x00c000,-36.3,0.00e-0
1664310868,C;S;V;F,15.8,0x00c000,-36.0,0.00e-0
1664310869,C;S;V;F,15.7,0x00c000,-36.1,0.00e-0
1664310870,C;S;V;F,16.0,0x00c000,-35.9,0.00e-0
1664310871,,15.6,0x00c000,-36.0,
1664310872,C;S;V;F,15.6,0x00c000,-36.3,0.00e-0
1664310873,C;S;V;F,15.6,0x00c000,-36.3,0.00e-0
1664310874,C;S;V;F,,0x00c000,-36.1,0.00e-0
1664310875,C;S;V;F,15.7,0x00c000,,0.00e-0
1664310876,C;S;V;F,15.7,0x00c000,-36.4,0.00e-0
1664310877,C;S;V;F,15.4,0x00c000,-36.4,0.00e-0
1664310878,C;S;V;F,15.3,0x00c000,-36.4,0.00e-0
1664310879,C;S;V;F,15.6,0x00c000,-36.1,0.00e-0
1664310880,C;S;V;F,15.7,0x00c000,-36.1,0.00e-0
1664310881,C;S;V;F,16.0,0x00c000,-36.3,0.00e-0
1664310882,C;S;V;F,15.6,0x00c000,-36.2,0.00e-0
1664310883,C;S;V;F,15.6,0x00c000,-36.2,0.00e-0
1664310884,,15.7,0x00c000,-36.4,
1664310885,C;S;V;F,15.4,0x00c000,-36.3,0.00e-0
1664310886,C;S;V;F,15.5,0x00c000,-36.4,0.00e-0
1664310887,C;S;V;F,,0x00c000,-36.4,0.00e-0
1664310888,C;S;V;F,15.3,0x00c000,,0.00e-0
1664310890,C;S;V;F,15.7,0x00c000,-36.4,0.00e-0
1664310891,C;S;V;F,15.4,0x00c000,-36.3,0.00e-0
1664310892,C;S;V;F,15.7,0x00c000,-36.2,0.00e-0
1664310893,,15.6,0x00c000,-36.2,
1664310894,C;S;V;F,15.7,0x00c000,-36.4,0.00e-0
1664310895,C;S;V;F,15.4,0x00c000,-36.1,0.00e-0
1664310896,C;S;V;F,15.7,0x00c000,-36.3,0.00e-0
1664310897,C;S;V;F,15.5,0x00c000,-36.3,0.00e-0
1664310898,C;S;V;F,,0x00c000,-36.3,0.00e-0
1664310899,C;S;V;F,15.2,0x00c000,-36.4,0.00e-0
1664310900,C;S;V;F,15.5,0x00c000,-36.4,0.00e-0
1664310901,C;S;V;F,15.5,0x00c000,-36.4,0.00e-0
1664310902,C;S;V;F,15.6,0x00c000,,0.00e-0
1664310903,C;S;V;F,15.2,0x00c000,-36.5,0.00e-0
1664310904,C;S;V;F,15.4,0x00c000,-36.7,0.00e-0
1664310905,C;S;V;F,15.2,0x00c000,-36.9,0.00e-0
1664310906,C;S;V;F,15.0,0x00c000,-36.9,0.00e-0
1664310907,C;S;V;F,15.0,0x00c000,-36.8,0.00e-0
1664310908,C;S;V;F,15.1,0x00c000,-37.0,
1664310909,,15.0,0x00c000,-37.1,0.00e-0
1664310910,C;S;V;F,15.0,0x00c000,-36.9,0.00e-0
1664310911,C;S;V;F,,0x00c000,-36.9,0.00e-0
1664310912,C;S;V;F,15.0,0x00c000,-36.8,0.00e-0
1664310913,C;S;V;F,15.0,0x00c000,,0.00e-0
1664310914,C;S;V;F,15.2,0x00c000,-36.8,0.00e-0
1664310915,C;S;V;F,15.4,0x00c000,-36.5,0.00e-0
1664310916,C;S;V;F,15.5,0x00c000,-36.3,0.00e-0
1664310917,C;S;V;F,15.4,0x00c000,-36.4,0.00e-0
1664310918,C;S;V;F,15.4,0x00c000,-36.4,0.00e-0
1664310919,C;S;V;F,15.4,0x00c000,-36.4,0.00e-0
1664310920,C;S;V;F,15.4,0x00c000,-36.5,0.00e-0
1664310922,C;S;V;F,15.4,0x00c000,-36.7,0.00e-0
1664310923,C;S;V;F,15.2,0x00c000,-36.8,0.00e-0
1664310924,C;S;V;F,15.3,0x00c000,-36.8,0.00e-0
1664310925,C;S;V;F,15.0,0x00c000,-36.7,0.00e-0
1664310926,C;S;V;F,15.3,0x00c000,-36.7,
1664310927,,15.3,0x00c000,-36.5,0.00e-0
1664310928,C;S;V;F,15.4,0x00c000,-36.4,0.00e-0
1664310929,C;S;V;F,15.2,0x00c000,-36.3,0.00e-0
1664310930,C;S;V;F,15.5,0x00c000,-36.3,0.00e-0
1664310931,C;S;V;F,,0x00c000,-36.4,0.00e-0
1664310932,C;S;V;F,15.4,0x00c000,,0.00e-0
1664310933,C;S;V;F,15.3,0x00c000,-36.4,0.00e-0
1664310934,C;S;V;F,15.5,0x00c000,-36.4,0.00e-0
1664310935,C;S;V;F,15.3,0x00c000,-36.4,0.00e-0
1664310936,C;S;V;F,15.6,0x00c000,-36.1,0.00e-0
1664310937,C;S;V;F,15.7,0x00c000,-36.0,0.00e-0
1664310938,C;S;V;F,15.7,0x00c000,-36.0,0.00e-0
1664310939,C;S;V;F,15.9,0x00c000,-35.9,0.00e-0
1664310940,C;S;V;F,15.8,0x00c000,-35.8,0.00e-0
1664310941,C;S;V;F,15.9,0x00c000,-35.8,
1664310942,,15.9,0x00c000,-35.9,0.00e-0
1664310943,C;S;V;F,15.7,0x00c000,-36.0,0.00e-0
1664310944,C;S;V;F,15.6,0x00c000,-36.2,0.00e-0
1664310945,C;S;V;F,15.6,0x00c000,-36.2,0.00e-0
1664310946,C;S;V;F,,0x00c000,-36.2,0.00e-0
1664310947,C;S;V;F,15.5,0x00c000,-36.2,0.00e-0
1664310948,C;S;V;F,15.7,0x00c000,,0.00e-0
1664310949,C;S;V;F,15.7,0x00c000,-36.2,0.00e-0
1664310950,C;S;V;F,15.6,0x00c000,-36.0,0.00e-0
1664310953,C;S;V;F,15.6,0x00c000,-36.4,0.00e-0
1664310954,C;S;V;F,15.7,0x00c000,-36.3,0.00e-0
1664310955,C;S;V;F,15.7,0x00c000,-36.4,0.00e-0
1664310956,C;S;V;F,15.4,0x00c000,-36.4,0.00e-0
1664310957,C;S;V;F,15.5,0x00c000,-36.5,0.00e-0
1664310958,C;S;V;F,15.5,0x00c000,-36.3,0.00e-0
1664310959,C;S;V;F,15.4,0x00c000,-35.9,0.00e-0
1664310960,C;S;V;F,15.8,0x00c000,-35.8,0.00e-0
1664310961,C;S;V;F,15.9,0x00c000,-35.9,0.00e-0
1664310962,C;S;V;F,15.7,0x00c000,-35.9,0.00e-0
1664310963,C;S;V;F,15.8,0x00c000,-35.8,
1664310964,,,,,0.00e-0
1664310967,C;S;V;F,15.5,0x00c000,-36.4,0.00e-0
1664310968,C;S;V;F,15.3,0x00c000,-36.6,0.00e-0
1664310969,C;S;V;F,15.3,0x00c000,-36.9,0.00e-0
1664310970,C;S;V;F,15.0,0x00c000,-36.9,
1664310971,,14.8,0x00c000,-36.8,0.00e-0
1664310972,C;S;V;F,14.8,0x00c000,-37.1,0.00e-0
1664310973,C;S;V;F,14.8,0x00c000,-37.0,0.00e-0
1664310974,C;S;V;F,14.5,0x00c000,-37.2,0.00e-0
1664310975,C;S;V;F,,0x00c000,-37.1,0.00e-0
1664310976,C;S;V;F,14.9,0x00c000,,0.00e-0
1664310977,C;S;V;F,14.9,0x00c000,-36.8,0.00e-0
1664310978,C;S;V;F,14.7,0x00c000,-36.9,0.00e-0
1664310979,C;S;V;F,14.9,0x00c000,-36.9,0.00e-0
1664310980,C;S;V;F,15.0,0x00c000,-36.8,0.00e-0
1664310981,C;S;V;F,14.9,0x00c000,-36.8,0.00e-0
1664310982,C;S;V;F,14.8,0x00c000,-37.1,
1664310983,,14.5,0x00c000,-37.2,0.00e-0
1664310984,C;S;V;F,14.5,0x00c000,-37.5,0.00e-0
1664310985,C;S;V;F,14.4,0x00c000,-37.6,0.00e-0
1664310986,C;S;V;F,,0x00c000,-37.5,0.00e-0
1664310987,C;S;V;F,14.3,0x00c000,-37.6,0.00e-0
1664310988,C;S;V;F,14.2,0x00c000,-37.9,0.00e-0
1664310989,C;S;V;F,14.0,0x00c000,-37.9,0.00e-0
1664310990,C;S;V;F,13.9,0x00c000,,0.00e-0
1664310991,C;S;V;F,13.7,0x00c000,-38.1,0.00e-0
1664310992,C;S;V;F,13.4,0x00c000,-38.2,0.00e-0
1664310993,C;S;V;F,13.0,0x00c000,-38.9,0.00e-0
1664310994,C;S;V;F,12.9,0x00c000,-39.3,1.51e-7
1664310995,C;S;V;F,12.4,0x00c000,-39.3,1.21e-6
1664310996,C;S;V;F,12.1,0x00c000,-39.6,1.81e-6
1664310997,C;S;V;F,12.3,0x00c000,-39.7,2.26e-6
1664310998,C;S;V;F,12.6,0x00c000,-39.5,1.96e-6
1664310999,,12.2,0x00c000,-39.4,
1664311000,C;S;V;F,12.4,0x00c000,-39.1,1.51e-6
1664311001,C;S;V;F,,0x00c000,-39.0,9.09e-7
1664311002,C;S;V;F,12.6,0x00c000,-38.9,6.06e-7
1664311003,C;S;V;F,12.7,0x00c000,,7.57e-7
1664311004,C;S;V;F,12.8,0x00c000,-39.1,6.06e-7
1664311005,C;S;V;F,12.8,0x00c000,-38.8,7.57e-7
1664311006,C;S;V;F,12.7,0x00c000,-38.9,6.06e-7
1664311007,C;S;V;F,13.0,0x00c000,-38.8,4.54e-7
1664311008,C;S;V;F,12.8,0x00c000,-38.8,3.03e-7
1664311009,C;S;V;F,12.9,0x00c000,-38.8,6.06e-7
1664311010,C;S;V;F,12.7,0x00c000,-38.8,6.06e-7
1664311011,C;S;V;F,12.9,0x00c000,-38.8,4.54e-7
1664311012,C;S;V;F,13.0,0x00c000,-38.6,0.00e-0
1664311013,C;S;V;F,12.6,0x00c000,-39.1,3.03e-7
1664311015,,12.0,0x00c000,-39.7,
1664311016,C;S;V;F,11.7,0x00c000,-40.4,3.32e-6
1664311017,C;S;V;F,11.0,0x00c000,-40.7,4.68e-6
1664311018,C;S;V;F,,0x00c000,-40.7,2.91e-5
1664311019,C;S;V;F,10.6,0x00c000,,3.88e-5
1664311020,C;S;V;F,10.8,0x00c000,-40.8,3.09e-5
1664311021,C;S;V;F,10.5,0x00c000,-41.1,5.36e-5
1664311022,C;S;V;F,10.3,0x00c000,-40.6,8.52e-5
1664311023,C;S;V;F,10.4,0x00c000,-41.1,6.03e-5
1664311024,C;S;V;F,10.9,0x00c000,-40.7,6.01e-5
1664311025,C;S;V;F,10.5,0x00c000,-40.7,5.43e-5
1664311026,C;S;V;F,10.4,0x00c000,-40.8,6.55e-5
1664311027,C;S;V;F,10.5,0x00c000,-40.9,7.07e-5
1664311028,C;S;V;F,10.6,0x00c000,-40.7,5.40e-5
1664311029,C;S;V;F,11.2,0x00c000,-40.1,4.36e-5
1664311030,C;S;V;F,11.0,0x00c000,-40.4,
1664311031,,10.9,0x00c000,-40.5,1.97e-5
1664311032,C;S;V;F,11.2,0x00c000,-40.0,2.79e-5
1664311033,C;S;V;F,11.2,0x00c000,-40.3,2.69e-5
1664311034,C;S;V;F,11.6,0x00c000,-39.9,1.95e-5
1664311035,C;S;V;F,11.6,0x00c000,-39.7,1.81e-5
1664311036,C;S;V;F,,0x00c000,-40.1,9.07e-6
1664311037,C;S;V;F,11.2,0x00c000,-40.0,1.12e-5
1664311038,C;S;V;F,11.0,0x00c000,-40.2,1.78e-5
1664311039,C;S;V;F,11.4,0x00c000,,1.66e-5
1664311040,C;S;V;F,10.9,0x00c000,-40.2,2.42e-5
1664311041,C;S;V;F,11.0,0x00c000,-40.4,2.81e-5
1664311042,C;S;V;F,11.1,0x00c000,-40.0,2.24e-5
1664311043,C;S;V;F,11.3,0x00c000,-40.1,1.84e-5
1664311044,C;S;V;F,11.4,0x00c000,-39.7,1.76e-5
1664311045,C;S;V;F,11.4,0x00c000,-39.8,1.28e-5
1664311046,C;S;V;F,11.6,0x00c000,-39.6,1.19e-5
1664311047,C;S;V;F,11.8,0x00c000,-39.6,8.31e-6
1664311048,C;S;V;F,11.8,0x00c000,-39.4,5.29e-6
1664311049,C;S;V;F,11.7,0x00c000,-39.5,5.29e-6
1664311050,C;S;V;F,11.7,0x00c000,-39.5,8.01e-6
1664311051,C;S;V;F,11.3,0x00c000,-39.9,1.06e-5
1664311052,C;S;V;F,10.9,0x00c000,-40.3,2.27e-5
1664311053,C;S;V;F,10.9,0x00c000,-40.4,
1664311054,,10.6,0x00c000,-40.7,3.13e-5
1664311055,C;S;V;F,10.2,0x00c000,-40.9,3.92e-5
1664311056,C;S;V;F,10.3,0x00c000,-40.9,8.43e-5
1664311057,C;S;V;F,,0x00c000,-40.5,1.01e-4
1664311058,C;S;V;F,10.5,0x00c000,-40.4,7.61e-5
1664311059,C;S;V;F,10.7,0x00c000,,5.19e-5
1664311060,C;S;V;F,10.9,0x00c000,-40.5,3.81e-5
1664311061,C;S;V;F,11.0,0x00c000,-40.1,3.94e-5
1664311062,C;S;V;F,11.2,0x00c000,-39.9,2.12e-5
1664311063,C;S;V;F,11.7,0x00c000,-39.6,1.40e-5
1664311064,C;S;V;F,11.8,0x00c000,-39.5,9.69e-6
1664311065,C;S;V;F,11.9,0x00c000,-39.6,7.86e-6
1664311066,,0.0,0xc0504d,-39.4,
1664311067,-;-;-;-,,,,-1e-7
